Simultaneous Nadir Overpasses (SNOs) Predictions

Prediction of SNOs between GOES-16 and AQUA Satellite Orbit:

Table of predicted SNOs for the next 14.0 days since TLE Epoch: 6/29/2020
Index Date Time (GOES-16) GOES-16 Lat,Lon AQUA Lat,Lon Distance(km) Time Diff (sec)
1 06/30/2020 06:29:37 0.02, -75.20 -0.24, -73.85 152.98 80
2 06/30/2020 18:51:00 -0.02, -75.20 -0.85, -79.04 437.27 80
3 07/02/2020 06:17:26 -0.01, -75.20 -0.91, -70.90 489.39 80
4 07/02/2020 18:38:50 0.01, -75.20 -0.17, -76.09 100.69 80
5 07/04/2020 18:29:18 0.02, -75.22 0.45, -73.13 236.95 80
6 07/05/2020 06:50:33 -0.02, -75.22 0.64, -78.29 348.78 80
7 07/07/2020 06:38:21 -0.02, -75.24 0.02, -75.33 10.39 80
8 07/09/2020 06:23:29 -0.01, -75.27 -0.61, -72.37 329.39 80
9 07/09/2020 18:44:53 0.01, -75.28 -0.47, -77.56 260.10 80
10 07/11/2020 18:35:21 -0.00, -75.31 0.17, -74.61 80.71 80
